Year,Month,Day,Hour,Minute,Value (Times are PST for temperature in C)
2012,09,02,00,00,11.70
2012,09,02,00,01,11.70
2012,09,02,00,02,11.70
2012,09,02,00,03,11.70
2012,09,02,00,04,11.70
2012,09,02,00,05,11.60
2012,09,02,00,06,11.70
2012,09,02,00,07,11.60
2012,09,02,00,08,11.60
2012,09,02,00,09,11.70
2012,09,02,00,10,11.70
2012,09,02,00,11,11.70
2012,09,02,00,12,11.80
2012,09,02,00,13,11.80
2012,09,02,00,14,11.90
2012,09,02,00,15,12.00
2012,09,02,00,16,12.10
2012,09,02,00,17,12.20
2012,09,02,00,18,12.30
2012,09,02,00,19,12.30
2012,09,02,00,20,12.40
2012,09,02,00,21,12.50
2012,09,02,00,22,12.50
2012,09,02,00,23,12.60
2012,09,02,00,24,12.70
2012,09,02,00,25,12.80
2012,09,02,00,26,12.80
2012,09,02,00,27,12.80
2012,09,02,00,28,12.90
2012,09,02,00,29,12.90
2012,09,02,00,30,13.00
2012,09,02,00,31,13.10
2012,09,02,00,32,13.10
2012,09,02,00,33,13.20
2012,09,02,00,34,13.20
2012,09,02,00,35,13.30
2012,09,02,00,36,13.30
2012,09,02,00,37,13.30
2012,09,02,00,38,13.30
2012,09,02,00,39,13.30
2012,09,02,00,40,13.40
2012,09,02,00,41,13.40
2012,09,02,00,42,13.40
2012,09,02,00,43,13.40
2012,09,02,00,44,13.40
2012,09,02,00,45,13.40
2012,09,02,00,46,13.50
2012,09,02,00,47,13.50
2012,09,02,00,48,13.50
2012,09,02,00,49,13.50
2012,09,02,00,50,13.50
2012,09,02,00,51,13.60
2012,09,02,00,52,13.60
2012,09,02,00,53,13.60
2012,09,02,00,54,13.60
2012,09,02,00,55,13.60
2012,09,02,00,56,13.70
2012,09,02,00,57,13.70
2012,09,02,00,58,13.70
2012,09,02,00,59,13.70
2012,09,02,01,00,13.70
2012,09,02,01,01,13.70
2012,09,02,01,02,13.80
2012,09,02,01,03,13.80
2012,09,02,01,04,13.80
2012,09,02,01,05,13.80
2012,09,02,01,06,13.90
2012,09,02,01,07,13.90
2012,09,02,01,08,13.90
2012,09,02,01,09,13.90
2012,09,02,01,10,13.90
2012,09,02,01,11,13.80
2012,09,02,01,12,13.80
2012,09,02,01,13,13.70
2012,09,02,01,14,13.60
2012,09,02,01,15,13.50
2012,09,02,01,16,13.40
2012,09,02,01,17,13.30
2012,09,02,01,18,13.30
2012,09,02,01,19,13.20
2012,09,02,01,20,13.20
2012,09,02,01,21,13.20
2012,09,02,01,22,13.10
2012,09,02,01,23,13.10
2012,09,02,01,24,13.10
2012,09,02,01,25,13.20
2012,09,02,01,26,13.20
2012,09,02,01,27,13.20
2012,09,02,01,28,13.20
2012,09,02,01,29,13.20
2012,09,02,01,30,13.20
2012,09,02,01,31,13.20
2012,09,02,01,32,13.20
2012,09,02,01,33,13.20
2012,09,02,01,34,13.20
2012,09,02,01,35,13.20
2012,09,02,01,36,13.20
2012,09,02,01,37,13.20
2012,09,02,01,38,13.30
2012,09,02,01,39,13.30
2012,09,02,01,40,13.30
2012,09,02,01,41,13.30
2012,09,02,01,42,13.30
2012,09,02,01,43,13.30
2012,09,02,01,44,13.30
2012,09,02,01,45,13.30
2012,09,02,01,46,13.30
2012,09,02,01,47,13.30
2012,09,02,01,48,13.30
2012,09,02,01,49,13.30
2012,09,02,01,50,13.20
2012,09,02,01,51,13.20
2012,09,02,01,52,13.20
2012,09,02,01,53,13.10
2012,09,02,01,54,13.10
2012,09,02,01,55,13.10
2012,09,02,01,56,13.10
2012,09,02,01,57,13.10
2012,09,02,01,58,13.00
2012,09,02,01,59,13.00
2012,09,02,02,00,13.00
2012,09,02,02,01,13.00
2012,09,02,02,02,13.00
2012,09,02,02,03,13.00
2012,09,02,02,04,13.00
2012,09,02,02,05,12.90
2012,09,02,02,06,12.90
2012,09,02,02,07,12.90
2012,09,02,02,08,12.90
2012,09,02,02,09,12.90
2012,09,02,02,10,12.80
2012,09,02,02,11,12.90
2012,09,02,02,12,12.90
2012,09,02,02,13,12.90
2012,09,02,02,14,13.00
2012,09,02,02,15,13.00
2012,09,02,02,16,13.10
2012,09,02,02,17,13.10
2012,09,02,02,18,13.20
2012,09,02,02,19,13.30
2012,09,02,02,20,13.30
2012,09,02,02,21,13.40
2012,09,02,02,22,13.40
2012,09,02,02,23,13.40
2012,09,02,02,24,13.50
2012,09,02,02,25,13.60
2012,09,02,02,26,13.60
2012,09,02,02,27,13.60
2012,09,02,02,28,13.70
2012,09,02,02,29,13.70
2012,09,02,02,30,13.70
2012,09,02,02,31,13.80
2012,09,02,02,32,13.80
2012,09,02,02,33,13.90
2012,09,02,02,34,13.90
2012,09,02,02,35,13.90
2012,09,02,02,36,13.90
2012,09,02,02,37,14.00
2012,09,02,02,38,14.00
2012,09,02,02,39,14.00
2012,09,02,02,40,13.90
2012,09,02,02,41,13.90
2012,09,02,02,42,13.90
2012,09,02,02,43,13.80
2012,09,02,02,44,13.70
2012,09,02,02,45,13.50
2012,09,02,02,46,13.40
2012,09,02,02,47,13.30
2012,09,02,02,48,13.30
2012,09,02,02,49,13.10
2012,09,02,02,50,13.00
2012,09,02,02,51,12.90
2012,09,02,02,52,12.80
2012,09,02,02,53,12.80
2012,09,02,02,54,12.70
2012,09,02,02,55,12.70
2012,09,02,02,56,12.60
2012,09,02,02,57,12.50
2012,09,02,02,58,12.40
2012,09,02,02,59,12.40
2012,09,02,03,00,12.30
2012,09,02,03,01,12.20
2012,09,02,03,02,12.20
2012,09,02,03,03,12.20
2012,09,02,03,04,12.10
2012,09,02,03,05,12.10
2012,09,02,03,06,12.10
2012,09,02,03,07,12.10
2012,09,02,03,08,12.00
2012,09,02,03,09,12.00
2012,09,02,03,10,12.00
2012,09,02,03,11,12.00
2012,09,02,03,12,12.00
2012,09,02,03,13,12.00
2012,09,02,03,14,12.00
2012,09,02,03,15,12.00
2012,09,02,03,16,12.00
2012,09,02,03,17,12.00
2012,09,02,03,18,12.10
2012,09,02,03,19,12.10
2012,09,02,03,20,12.10
2012,09,02,03,21,12.10
2012,09,02,03,22,12.10
2012,09,02,03,23,12.10
2012,09,02,03,24,12.10
2012,09,02,03,25,12.20
2012,09,02,03,26,12.20
2012,09,02,03,27,12.20
2012,09,02,03,28,12.20
2012,09,02,03,29,12.20
2012,09,02,03,30,12.30
2012,09,02,03,31,12.30
2012,09,02,03,32,12.30
2012,09,02,03,33,12.30
2012,09,02,03,34,12.30
2012,09,02,03,35,12.30
2012,09,02,03,36,12.40
2012,09,02,03,37,12.40
2012,09,02,03,38,12.40
2012,09,02,03,39,12.40
2012,09,02,03,40,12.40
2012,09,02,03,41,12.40
2012,09,02,03,42,12.40
2012,09,02,03,43,12.40
2012,09,02,03,44,12.40
2012,09,02,03,45,12.40
2012,09,02,03,46,12.40
2012,09,02,03,47,12.40
2012,09,02,03,48,12.40
2012,09,02,03,49,12.40
2012,09,02,03,50,12.40
2012,09,02,03,51,12.40
2012,09,02,03,52,12.40
2012,09,02,03,53,12.50
2012,09,02,03,54,12.50
2012,09,02,03,55,12.50
2012,09,02,03,56,12.50
2012,09,02,03,57,12.50
2012,09,02,03,58,12.60
2012,09,02,03,59,12.60
2012,09,02,04,00,12.60
2012,09,02,04,01,12.60
2012,09,02,04,02,12.60
2012,09,02,04,03,12.60
2012,09,02,04,04,12.60
2012,09,02,04,05,12.60
2012,09,02,04,06,12.60
2012,09,02,04,07,12.60
2012,09,02,04,08,12.60
2012,09,02,04,09,12.60
2012,09,02,04,10,12.60
2012,09,02,04,11,12.60
2012,09,02,04,12,12.60
2012,09,02,04,13,12.60
2012,09,02,04,14,12.60
2012,09,02,04,15,12.60
2012,09,02,04,16,12.60
2012,09,02,04,17,12.60
2012,09,02,04,18,12.60
2012,09,02,04,19,12.60
2012,09,02,04,20,12.60
2012,09,02,04,21,12.60
2012,09,02,04,22,12.60
2012,09,02,04,23,12.70
2012,09,02,04,24,12.70
2012,09,02,04,25,12.70
2012,09,02,04,26,12.70
2012,09,02,04,27,12.70
2012,09,02,04,28,12.70
2012,09,02,04,29,12.70
2012,09,02,04,30,12.70
2012,09,02,04,31,12.70
2012,09,02,04,32,12.70
2012,09,02,04,33,12.70
2012,09,02,04,34,12.70
2012,09,02,04,35,12.80
2012,09,02,04,36,12.80
2012,09,02,04,37,12.80
2012,09,02,04,38,12.80
2012,09,02,04,39,12.80
2012,09,02,04,40,12.80
2012,09,02,04,41,12.80
2012,09,02,04,42,12.80
2012,09,02,04,43,12.90
2012,09,02,04,44,12.90
2012,09,02,04,45,12.90
2012,09,02,04,46,12.90
2012,09,02,04,47,13.00
2012,09,02,04,48,13.00
2012,09,02,04,49,13.00
2012,09,02,04,50,13.10
2012,09,02,04,51,13.10
2012,09,02,04,52,13.10
2012,09,02,04,53,13.10
2012,09,02,04,54,13.10
2012,09,02,04,55,13.10
2012,09,02,04,56,13.10
2012,09,02,04,57,13.10
2012,09,02,04,58,13.10
2012,09,02,04,59,13.10
2012,09,02,05,00,13.10
2012,09,02,05,01,13.10
2012,09,02,05,02,13.10
2012,09,02,05,03,13.10
2012,09,02,05,04,13.10
2012,09,02,05,05,13.10
2012,09,02,05,06,13.20
2012,09,02,05,07,13.20
2012,09,02,05,08,13.20
2012,09,02,05,09,13.20
2012,09,02,05,10,13.20
2012,09,02,05,11,13.20
2012,09,02,05,12,13.30
2012,09,02,05,13,13.30
2012,09,02,05,14,13.30
2012,09,02,05,15,13.30
2012,09,02,05,16,13.30
2012,09,02,05,17,13.30
2012,09,02,05,18,13.40
2012,09,02,05,19,13.40
2012,09,02,05,20,13.40
2012,09,02,05,21,13.40
2012,09,02,05,22,13.40
2012,09,02,05,23,13.40
2012,09,02,05,24,13.40
2012,09,02,05,25,13.50
2012,09,02,05,26,13.50
2012,09,02,05,27,13.50
2012,09,02,05,28,13.60
2012,09,02,05,29,13.60
2012,09,02,05,30,13.60
2012,09,02,05,31,13.60
2012,09,02,05,32,13.70
2012,09,02,05,33,13.70
2012,09,02,05,34,13.70
2012,09,02,05,35,13.70
2012,09,02,05,36,13.70
2012,09,02,05,37,13.70
2012,09,02,05,38,13.70
2012,09,02,05,39,13.80
2012,09,02,05,40,13.80
2012,09,02,05,41,13.80
2012,09,02,05,42,13.90
2012,09,02,05,43,13.80
2012,09,02,05,44,13.90
2012,09,02,05,45,13.90
2012,09,02,05,46,13.90
2012,09,02,05,47,13.80
2012,09,02,05,48,13.90
2012,09,02,05,49,13.80
2012,09,02,05,50,13.80
2012,09,02,05,51,13.80
2012,09,02,05,52,13.80
2012,09,02,05,53,13.80
2012,09,02,05,54,13.80
2012,09,02,05,55,13.80
2012,09,02,05,56,13.80
2012,09,02,05,57,13.80
2012,09,02,05,58,13.80
2012,09,02,05,59,13.80
2012,09,02,06,00,13.70
2012,09,02,06,01,13.70
2012,09,02,06,02,13.60
2012,09,02,06,03,13.50
2012,09,02,06,04,13.50
2012,09,02,06,05,13.40
2012,09,02,06,06,13.30
2012,09,02,06,07,13.20
2012,09,02,06,08,13.20
2012,09,02,06,09,13.10
2012,09,02,06,10,13.10
2012,09,02,06,11,13.00
2012,09,02,06,12,13.00
2012,09,02,06,13,12.90
2012,09,02,06,14,12.90
2012,09,02,06,15,12.80
2012,09,02,06,16,12.80
2012,09,02,06,17,12.80
2012,09,02,06,18,12.80
2012,09,02,06,19,12.70
2012,09,02,06,20,12.70
2012,09,02,06,21,12.70
2012,09,02,06,22,12.70
2012,09,02,06,23,12.70
2012,09,02,06,24,12.70
2012,09,02,06,25,12.70
2012,09,02,06,26,12.70
2012,09,02,06,27,12.70
2012,09,02,06,28,12.70
2012,09,02,06,29,12.70
2012,09,02,06,30,12.70
2012,09,02,06,31,12.70
2012,09,02,06,32,12.70
2012,09,02,06,33,12.70
2012,09,02,06,34,12.80
2012,09,02,06,35,12.80
2012,09,02,06,36,12.80
2012,09,02,06,37,12.80
2012,09,02,06,38,12.70
2012,09,02,06,39,12.70
2012,09,02,06,40,12.70
2012,09,02,06,41,12.70
2012,09,02,06,42,12.70
2012,09,02,06,43,12.80
2012,09,02,06,44,12.80
2012,09,02,06,45,12.80
2012,09,02,06,46,12.80
2012,09,02,06,47,12.80
2012,09,02,06,48,12.90
2012,09,02,06,49,12.90
2012,09,02,06,50,12.90
2012,09,02,06,51,12.90
2012,09,02,06,52,12.90
2012,09,02,06,53,12.80
2012,09,02,06,54,12.80
2012,09,02,06,55,12.70
2012,09,02,06,56,12.60
2012,09,02,06,57,12.50
2012,09,02,06,58,12.50
2012,09,02,06,59,12.40
2012,09,02,07,00,12.30
2012,09,02,07,01,12.30
2012,09,02,07,02,12.30
2012,09,02,07,03,12.20
2012,09,02,07,04,12.20
2012,09,02,07,05,12.10
2012,09,02,07,06,12.10
2012,09,02,07,07,12.10
2012,09,02,07,08,12.10
2012,09,02,07,09,12.10
2012,09,02,07,10,12.10
2012,09,02,07,11,12.10
2012,09,02,07,12,12.10
2012,09,02,07,13,12.00
2012,09,02,07,14,12.00
2012,09,02,07,15,12.00
2012,09,02,07,16,12.00
2012,09,02,07,17,12.00
2012,09,02,07,18,12.00
2012,09,02,07,19,12.00
2012,09,02,07,20,11.90
2012,09,02,07,21,11.90
2012,09,02,07,22,11.90
2012,09,02,07,23,11.90
2012,09,02,07,24,11.90
2012,09,02,07,25,11.90
2012,09,02,07,26,11.90
2012,09,02,07,27,11.90
2012,09,02,07,28,12.00
2012,09,02,07,29,12.00
2012,09,02,07,30,12.00
2012,09,02,07,31,12.10
2012,09,02,07,32,12.10
2012,09,02,07,33,12.10
2012,09,02,07,34,12.20
2012,09,02,07,35,12.30
2012,09,02,07,36,12.30
2012,09,02,07,37,12.40
2012,09,02,07,38,12.50
2012,09,02,07,39,12.50
2012,09,02,07,40,12.60
2012,09,02,07,41,12.70
2012,09,02,07,42,12.70
2012,09,02,07,43,12.80
2012,09,02,07,44,12.80
2012,09,02,07,45,12.90
2012,09,02,07,46,12.90
2012,09,02,07,47,13.00
2012,09,02,07,48,13.00
2012,09,02,07,49,13.10
2012,09,02,07,50,13.10
2012,09,02,07,51,13.10
2012,09,02,07,52,13.20
2012,09,02,07,53,13.20
2012,09,02,07,54,13.20
2012,09,02,07,55,13.20
2012,09,02,07,56,13.30
2012,09,02,07,57,13.30
2012,09,02,07,58,13.30
2012,09,02,07,59,13.30
2012,09,02,08,00,13.30
2012,09,02,08,01,13.30
2012,09,02,08,02,13.40
2012,09,02,08,03,13.40
2012,09,02,08,04,13.40
2012,09,02,08,05,13.40
2012,09,02,08,06,13.50
2012,09,02,08,07,13.50
2012,09,02,08,08,13.50
2012,09,02,08,09,13.60
2012,09,02,08,10,13.60
2012,09,02,08,11,13.60
2012,09,02,08,12,13.70
2012,09,02,08,13,13.70
2012,09,02,08,14,13.70
2012,09,02,08,15,13.70
2012,09,02,08,16,13.70
2012,09,02,08,17,13.70
2012,09,02,08,18,13.70
2012,09,02,08,19,13.80
2012,09,02,08,20,13.80
2012,09,02,08,21,13.80
2012,09,02,08,22,13.80
2012,09,02,08,23,13.90
2012,09,02,08,24,13.90
2012,09,02,08,25,13.90
2012,09,02,08,26,13.90
2012,09,02,08,27,13.90
2012,09,02,08,28,14.00
2012,09,02,08,29,14.00
2012,09,02,08,30,14.10
2012,09,02,08,31,14.10
2012,09,02,08,32,14.20
2012,09,02,08,33,14.20
2012,09,02,08,34,14.20
2012,09,02,08,35,14.20
2012,09,02,08,36,14.20
2012,09,02,08,37,14.20
2012,09,02,08,38,14.20
2012,09,02,08,39,14.20
2012,09,02,08,40,14.20
2012,09,02,08,41,14.20
2012,09,02,08,42,14.20
2012,09,02,08,43,14.20
2012,09,02,08,44,14.20
2012,09,02,08,45,14.30
2012,09,02,08,46,14.30
2012,09,02,08,47,14.30
2012,09,02,08,48,14.30
2012,09,02,08,49,14.30
2012,09,02,08,50,14.40
2012,09,02,08,51,14.40
2012,09,02,08,52,14.40
2012,09,02,08,53,14.50
2012,09,02,08,54,14.60
2012,09,02,08,55,14.60
2012,09,02,08,56,14.70
2012,09,02,08,57,14.80
2012,09,02,08,58,14.80
2012,09,02,08,59,15.00
2012,09,02,09,00,15.00
2012,09,02,09,01,15.00
2012,09,02,09,02,15.00
2012,09,02,09,03,15.00
2012,09,02,09,04,15.00
2012,09,02,09,05,15.00
2012,09,02,09,06,15.00
2012,09,02,09,07,15.00
2012,09,02,09,08,15.00
2012,09,02,09,09,15.00
2012,09,02,09,10,15.00
2012,09,02,09,11,15.10
2012,09,02,09,12,15.20
2012,09,02,09,13,15.20
2012,09,02,09,14,15.30
2012,09,02,09,15,15.40
2012,09,02,09,16,15.40
2012,09,02,09,17,15.40
2012,09,02,09,18,15.40
2012,09,02,09,19,15.40
2012,09,02,09,20,15.40
2012,09,02,09,21,15.30
2012,09,02,09,22,15.30
2012,09,02,09,23,15.30
2012,09,02,09,24,15.30
2012,09,02,09,25,15.40
2012,09,02,09,26,15.40
2012,09,02,09,27,15.40
2012,09,02,09,28,15.40
2012,09,02,09,29,15.40
2012,09,02,09,30,15.50
2012,09,02,09,31,15.50
2012,09,02,09,32,15.60
2012,09,02,09,33,15.70
2012,09,02,09,34,15.70
2012,09,02,09,35,15.80
2012,09,02,09,36,15.80
2012,09,02,09,37,15.80
2012,09,02,09,38,15.90
2012,09,02,09,39,15.90
2012,09,02,09,40,15.90
2012,09,02,09,41,15.90
2012,09,02,09,42,15.90
2012,09,02,09,43,15.90
2012,09,02,09,44,16.00
2012,09,02,09,45,16.10
2012,09,02,09,46,16.10
2012,09,02,09,47,16.10
2012,09,02,09,48,16.10
2012,09,02,09,49,16.10
2012,09,02,09,50,16.10
2012,09,02,09,51,16.00
2012,09,02,09,52,15.90
2012,09,02,09,53,15.80
2012,09,02,09,54,15.70
2012,09,02,09,55,15.70
2012,09,02,09,56,15.80
2012,09,02,09,57,15.90
2012,09,02,09,58,16.00
2012,09,02,09,59,16.10
2012,09,02,10,00,16.10
2012,09,02,10,01,16.20
2012,09,02,10,02,16.20
2012,09,02,10,03,16.20
2012,09,02,10,04,16.20
2012,09,02,10,05,16.20
2012,09,02,10,06,16.30
2012,09,02,10,07,16.30
2012,09,02,10,08,16.40
2012,09,02,10,09,16.40
2012,09,02,10,10,16.40
2012,09,02,10,11,16.30
2012,09,02,10,12,16.20
2012,09,02,10,13,16.10
2012,09,02,10,14,16.10
2012,09,02,10,15,16.10
2012,09,02,10,16,16.10
2012,09,02,10,17,16.20
2012,09,02,10,18,16.30
2012,09,02,10,19,16.30
2012,09,02,10,20,16.30
2012,09,02,10,21,16.30
2012,09,02,10,22,16.40
2012,09,02,10,23,16.40
2012,09,02,10,24,16.50
2012,09,02,10,25,16.60
2012,09,02,10,26,16.60
2012,09,02,10,27,16.50
2012,09,02,10,28,16.40
2012,09,02,10,29,16.40
2012,09,02,10,30,16.40
2012,09,02,10,31,16.50
2012,09,02,10,32,16.50
2012,09,02,10,33,16.60
2012,09,02,10,34,16.60
2012,09,02,10,35,16.60
2012,09,02,10,36,16.60
2012,09,02,10,37,16.60
2012,09,02,10,38,16.60
2012,09,02,10,39,16.60
2012,09,02,10,40,16.50
2012,09,02,10,41,16.50
2012,09,02,10,42,16.50
2012,09,02,10,43,16.40
2012,09,02,10,44,16.40
2012,09,02,10,45,16.30
2012,09,02,10,46,16.30
2012,09,02,10,47,16.30
2012,09,02,10,48,16.30
2012,09,02,10,49,16.30
2012,09,02,10,50,16.30
2012,09,02,10,51,16.30
2012,09,02,10,52,16.30
2012,09,02,10,53,16.30
2012,09,02,10,54,16.20
2012,09,02,10,55,16.20
2012,09,02,10,56,16.30
2012,09,02,10,57,16.50
2012,09,02,10,58,16.60
2012,09,02,10,59,16.60
2012,09,02,11,00,16.70
2012,09,02,11,01,16.70
2012,09,02,11,02,16.80
2012,09,02,11,03,16.90
2012,09,02,11,04,16.90
2012,09,02,11,05,16.90
2012,09,02,11,06,16.90
2012,09,02,11,07,16.90
2012,09,02,11,08,16.90
2012,09,02,11,09,17.00
2012,09,02,11,10,17.00
2012,09,02,11,11,17.10
2012,09,02,11,12,17.10
2012,09,02,11,13,17.10
2012,09,02,11,14,17.10
2012,09,02,11,15,17.20
2012,09,02,11,16,17.20
2012,09,02,11,17,17.20
2012,09,02,11,18,17.20
2012,09,02,11,19,17.20
2012,09,02,11,20,17.30
2012,09,02,11,21,17.40
2012,09,02,11,22,17.40
2012,09,02,11,23,17.30
2012,09,02,11,24,17.50
2012,09,02,11,25,17.60
2012,09,02,11,26,17.60
2012,09,02,11,27,17.70
2012,09,02,11,28,17.80
2012,09,02,11,29,17.90
2012,09,02,11,30,17.90
2012,09,02,11,31,17.80
2012,09,02,11,32,17.90
2012,09,02,11,33,17.90
2012,09,02,11,34,18.00
2012,09,02,11,35,18.00
2012,09,02,11,36,17.80
2012,09,02,11,37,17.70
2012,09,02,11,38,17.70
2012,09,02,11,39,17.50
2012,09,02,11,40,17.40
2012,09,02,11,41,17.30
2012,09,02,11,42,17.40
2012,09,02,11,43,17.30
2012,09,02,11,44,17.30
2012,09,02,11,45,17.30
2012,09,02,11,46,17.40
2012,09,02,11,47,17.40
2012,09,02,11,48,17.30
2012,09,02,11,49,17.30
2012,09,02,11,50,17.30
2012,09,02,11,51,17.20
2012,09,02,11,52,17.20
2012,09,02,11,53,17.20
2012,09,02,11,54,17.20
2012,09,02,11,55,17.10
2012,09,02,11,56,17.20
2012,09,02,11,57,17.30
2012,09,02,11,58,17.50
2012,09,02,11,59,17.60
2012,09,02,12,00,17.70
2012,09,02,12,01,17.70
2012,09,02,12,02,17.80
2012,09,02,12,03,17.90
2012,09,02,12,04,17.90
2012,09,02,12,05,17.80
2012,09,02,12,06,17.70
2012,09,02,12,07,17.50
2012,09,02,12,08,17.30
2012,09,02,12,09,17.20
2012,09,02,12,10,17.20
2012,09,02,12,11,17.20
2012,09,02,12,12,17.30
2012,09,02,12,13,17.20
2012,09,02,12,14,17.20
2012,09,02,12,15,17.20
2012,09,02,12,16,17.30
2012,09,02,12,17,17.50
2012,09,02,12,18,17.60
2012,09,02,12,19,17.60
2012,09,02,12,20,17.50
2012,09,02,12,21,17.40
2012,09,02,12,22,17.30
2012,09,02,12,23,17.30
2012,09,02,12,24,17.20
2012,09,02,12,25,17.10
2012,09,02,12,26,17.10
2012,09,02,12,27,17.10
2012,09,02,12,28,17.30
2012,09,02,12,29,17.50
2012,09,02,12,30,17.60
2012,09,02,12,31,17.50
2012,09,02,12,32,17.40
2012,09,02,12,33,17.50
2012,09,02,12,34,17.40
2012,09,02,12,35,17.40
2012,09,02,12,36,17.30
2012,09,02,12,37,17.30
2012,09,02,12,38,17.30
2012,09,02,12,39,17.30
2012,09,02,12,40,17.40
2012,09,02,12,41,17.50
2012,09,02,12,42,17.60
2012,09,02,12,43,17.70
2012,09,02,12,44,17.60
2012,09,02,12,45,17.70
2012,09,02,12,46,17.70
2012,09,02,12,47,17.70
2012,09,02,12,48,17.70
2012,09,02,12,49,17.60
2012,09,02,12,50,17.50
2012,09,02,12,51,17.50
2012,09,02,12,52,17.50
2012,09,02,12,53,17.60
2012,09,02,12,54,17.60
2012,09,02,12,55,17.60
2012,09,02,12,56,17.50
2012,09,02,12,57,17.50
2012,09,02,12,58,17.60
2012,09,02,12,59,17.70
2012,09,02,13,00,17.60
2012,09,02,13,01,17.60
2012,09,02,13,02,17.60
2012,09,02,13,03,17.60
2012,09,02,13,04,17.60
2012,09,02,13,05,17.70
2012,09,02,13,06,17.60
2012,09,02,13,07,17.60
2012,09,02,13,08,17.50
2012,09,02,13,09,17.40
2012,09,02,13,10,17.50
2012,09,02,13,11,17.60
2012,09,02,13,12,17.70
2012,09,02,13,13,17.90
2012,09,02,13,14,17.90
2012,09,02,13,15,17.90
2012,09,02,13,16,17.90
2012,09,02,13,17,17.80
2012,09,02,13,18,17.70
2012,09,02,13,19,17.70
2012,09,02,13,20,17.60
2012,09,02,13,21,17.60
2012,09,02,13,22,17.60
2012,09,02,13,23,17.70
2012,09,02,13,24,17.70
2012,09,02,13,25,17.80
2012,09,02,13,26,17.80
2012,09,02,13,27,17.90
2012,09,02,13,28,17.90
2012,09,02,13,29,17.90
2012,09,02,13,30,17.90
2012,09,02,13,31,17.90
2012,09,02,13,32,18.00
2012,09,02,13,33,17.90
2012,09,02,13,34,17.90
2012,09,02,13,35,17.90
2012,09,02,13,36,17.80
2012,09,02,13,37,17.80
2012,09,02,13,38,17.90
2012,09,02,13,39,17.90
2012,09,02,13,40,17.90
2012,09,02,13,41,18.00
2012,09,02,13,42,18.00
2012,09,02,13,43,18.10
2012,09,02,13,44,18.20
2012,09,02,13,45,18.20
2012,09,02,13,46,18.20
2012,09,02,13,47,18.20
2012,09,02,13,48,18.30
2012,09,02,13,49,18.30
2012,09,02,13,50,18.30
2012,09,02,13,51,18.40
2012,09,02,13,52,18.50
2012,09,02,13,53,18.50
2012,09,02,13,54,18.40
2012,09,02,13,55,18.50
2012,09,02,13,56,18.50
2012,09,02,13,57,18.50
2012,09,02,13,58,18.50
2012,09,02,13,59,18.60
2012,09,02,14,00,18.60
2012,09,02,14,01,18.50
2012,09,02,14,02,18.50
2012,09,02,14,03,18.60
2012,09,02,14,04,18.70
2012,09,02,14,05,18.70
2012,09,02,14,06,18.70
2012,09,02,14,07,18.70
2012,09,02,14,08,18.70
2012,09,02,14,09,18.80
2012,09,02,14,10,18.90
2012,09,02,14,11,19.00
2012,09,02,14,12,19.10
2012,09,02,14,13,19.10
2012,09,02,14,14,19.10
2012,09,02,14,15,19.00
2012,09,02,14,16,18.90
2012,09,02,14,17,18.80
2012,09,02,14,18,18.80
2012,09,02,14,19,18.80
2012,09,02,14,20,18.90
2012,09,02,14,21,19.00
2012,09,02,14,22,19.00
2012,09,02,14,23,18.90
2012,09,02,14,24,18.90
2012,09,02,14,25,18.80
2012,09,02,14,26,18.80
2012,09,02,14,27,18.70
2012,09,02,14,28,18.80
2012,09,02,14,29,18.80
2012,09,02,14,30,18.80
2012,09,02,14,31,18.80
2012,09,02,14,32,18.80
2012,09,02,14,33,18.80
2012,09,02,14,34,18.80
2012,09,02,14,35,18.80
2012,09,02,14,36,18.80
2012,09,02,14,37,18.70
2012,09,02,14,38,18.70
2012,09,02,14,39,18.80
2012,09,02,14,40,18.80
2012,09,02,14,41,18.90
2012,09,02,14,42,18.90
2012,09,02,14,43,18.80
2012,09,02,14,44,18.80
2012,09,02,14,45,18.80
2012,09,02,14,46,18.80
2012,09,02,14,47,18.90
2012,09,02,14,48,18.90
2012,09,02,14,49,18.90
2012,09,02,14,50,18.90
2012,09,02,14,51,19.00
2012,09,02,14,52,19.10
2012,09,02,14,53,19.20
2012,09,02,14,54,19.20
2012,09,02,14,55,19.30
2012,09,02,14,56,19.20
2012,09,02,14,57,19.20
2012,09,02,14,58,19.30
2012,09,02,14,59,19.30
2012,09,02,15,00,19.30
2012,09,02,15,01,19.20
2012,09,02,15,02,19.00
2012,09,02,15,03,18.90
2012,09,02,15,04,18.90
2012,09,02,15,05,18.80
2012,09,02,15,06,18.80
2012,09,02,15,07,18.70
2012,09,02,15,08,18.70
2012,09,02,15,09,18.70
2012,09,02,15,10,18.70
2012,09,02,15,11,18.60
2012,09,02,15,12,18.60
2012,09,02,15,13,18.50
2012,09,02,15,14,18.50
2012,09,02,15,15,18.60
2012,09,02,15,16,18.60
2012,09,02,15,17,18.70
2012,09,02,15,18,18.90
2012,09,02,15,19,19.10
2012,09,02,15,20,19.20
2012,09,02,15,21,19.30
2012,09,02,15,22,19.20
2012,09,02,15,23,19.20
2012,09,02,15,24,19.30
2012,09,02,15,25,19.20
2012,09,02,15,26,19.20
2012,09,02,15,27,19.30
2012,09,02,15,28,19.30
2012,09,02,15,29,19.40
2012,09,02,15,30,19.40
2012,09,02,15,31,19.40
2012,09,02,15,32,19.40
2012,09,02,15,33,19.40
2012,09,02,15,34,19.40
2012,09,02,15,35,19.40
2012,09,02,15,36,19.50
2012,09,02,15,37,19.50
2012,09,02,15,38,19.50
2012,09,02,15,39,19.50
2012,09,02,15,40,19.50
2012,09,02,15,41,19.50
2012,09,02,15,42,19.50
2012,09,02,15,43,19.50
2012,09,02,15,44,19.50
2012,09,02,15,45,19.50
2012,09,02,15,46,19.50
2012,09,02,15,47,19.40
2012,09,02,15,48,19.40
2012,09,02,15,49,19.30
2012,09,02,15,50,19.30
2012,09,02,15,51,19.20
2012,09,02,15,52,19.20
2012,09,02,15,53,19.20
2012,09,02,15,54,19.20
2012,09,02,15,55,19.20
2012,09,02,15,56,19.10
2012,09,02,15,57,19.10
2012,09,02,15,58,19.10
2012,09,02,15,59,19.20
2012,09,02,16,00,19.30
2012,09,02,16,01,19.30
2012,09,02,16,02,19.30
2012,09,02,16,03,19.40
2012,09,02,16,04,19.40
2012,09,02,16,05,19.40
2012,09,02,16,06,19.30
2012,09,02,16,07,19.20
2012,09,02,16,08,19.20
2012,09,02,16,09,19.20
2012,09,02,16,10,19.30
2012,09,02,16,11,19.30
2012,09,02,16,12,19.30
2012,09,02,16,13,19.30
2012,09,02,16,14,19.40
2012,09,02,16,15,19.40
2012,09,02,16,16,19.40
2012,09,02,16,17,19.50
2012,09,02,16,18,19.60
2012,09,02,16,19,19.60
2012,09,02,16,20,19.60
2012,09,02,16,21,19.60
2012,09,02,16,22,19.70
2012,09,02,16,23,19.80
2012,09,02,16,24,19.90
2012,09,02,16,25,19.90
2012,09,02,16,26,19.90
2012,09,02,16,27,19.90
2012,09,02,16,28,19.90
2012,09,02,16,29,19.90
2012,09,02,16,30,19.90
2012,09,02,16,31,19.80
2012,09,02,16,32,19.70
2012,09,02,16,33,19.60
2012,09,02,16,34,19.60
2012,09,02,16,35,19.50
2012,09,02,16,36,19.50
2012,09,02,16,37,19.50
2012,09,02,16,38,19.70
2012,09,02,16,39,19.80
2012,09,02,16,40,19.80
2012,09,02,16,41,19.80
2012,09,02,16,42,19.90
2012,09,02,16,43,19.90
2012,09,02,16,44,19.90
2012,09,02,16,45,19.80
2012,09,02,16,46,19.80
2012,09,02,16,47,19.70
2012,09,02,16,48,19.60
2012,09,02,16,49,19.60
2012,09,02,16,50,19.60
2012,09,02,16,51,19.60
2012,09,02,16,52,19.60
2012,09,02,16,53,19.60
2012,09,02,16,54,19.70
2012,09,02,16,55,19.70
2012,09,02,16,56,19.80
2012,09,02,16,57,19.70
2012,09,02,16,58,19.70
2012,09,02,16,59,19.80
2012,09,02,17,00,19.80
2012,09,02,17,01,19.80
2012,09,02,17,02,19.90
2012,09,02,17,03,19.90
2012,09,02,17,04,19.90
2012,09,02,17,05,19.80
2012,09,02,17,06,19.90
2012,09,02,17,07,19.90
2012,09,02,17,08,19.90
2012,09,02,17,09,19.80
2012,09,02,17,10,19.90
2012,09,02,17,11,19.90
2012,09,02,17,12,19.90
2012,09,02,17,13,19.90
2012,09,02,17,14,19.70
2012,09,02,17,15,19.60
2012,09,02,17,16,19.60
2012,09,02,17,17,19.60
2012,09,02,17,18,19.60
2012,09,02,17,19,19.60